Location: Unspecified
(0.0000°N, 0.0000°E)
Time: 13:30:38
(UTC+00:00)

N. Korean satellite - Pass Details

Date: 01 June 2019
Orbit: 455 x 510 km, 97.2° (Epoch: 16 June)

Event Time Altitude Azimuth Distance (km) Brightness Sun altitude
Rises 04:56:40 0° 42° (NE) 2,454 11.4 -14.1°
Reaches altitude 10° 04:59:27 10° 68° (ENE) 1,587 10.7 -13.5°
Maximum altitude 05:01:19 14° 101° (ESE) 1,362 9.7 -13.1°
Drops below altitude 10° 05:03:10 10° 135° (SE) 1,598 9.5 -12.6°
Sets 05:05:59 0° 161° (SSE) 2,482 10.1 -12.0°
